CW4299 Treasure Island FL US current weather conditions

sailwx.info

Wind from 342 at 5 knots gusting 13

Air temperature 17.2° C
Dewpoint 11.9° C

Last reported at 2019-Mar-22 05:00 UTC.
Time now 2019-Mar-22 05:58 UTC

Location: N 27°46' W 082°46'.
View on Google Maps.

See reports from other nearby stations

  
Tides and Currents Weather Stations Pressure Air Temp Water Temp Dewpoint Dewpoint Depression Visibility Wind Speed Wind Dir Waves Ship Positions
date/time (UTC)wind fromknots sea level pressurealtimeterstation pressurevisibilityair tempwater tempwave heightnotes
2019-Mar-22 05:00 342 5 gusting 13 17.2
2019-Mar-22 04:45 325 6 gusting 14 17.2
2019-Mar-22 04:30 315 5 gusting 14 17.2
2019-Mar-22 04:17 289 6 gusting 15 17.2
2019-Mar-22 04:01 298 7 gusting 15 17.2
2019-Mar-22 03:46 350 7 gusting 16 17.8
2019-Mar-22 03:31 288 7 gusting 15 17.8
2019-Mar-22 03:16 262 6 gusting 14 17.8
2019-Mar-22 03:02 305 5 gusting 13 17.8
2019-Mar-22 02:47 267 6 gusting 15 17.8
2019-Mar-22 02:31 316 6 gusting 13 17.8
2019-Mar-22 02:16 307 6 gusting 14 18.3
2019-Mar-22 02:01 303 7 gusting 13 18.3
2019-Mar-22 01:46 297 6 gusting 13 18.3
2019-Mar-22 01:31 295 6 gusting 15 18.3
2019-Mar-22 01:16 297 6 gusting 15 18.9
2019-Mar-22 01:01 302 7 gusting 16 18.9
2019-Mar-22 00:46 306 5 gusting 13 18.9
2019-Mar-22 00:32 250 6 gusting 15 18.9
2019-Mar-22 00:17 300 6 gusting 16 18.9
2019-Mar-22 00:02 250 7 gusting 13 18.9
2019-Mar-21 23:46 275 4 gusting 11 18.9
2019-Mar-21 23:31 284 5 gusting 11 18.9
2019-Mar-21 23:16 253 6 gusting 13 19.4
2019-Mar-21 23:01 278 5 gusting 12 19.4
2019-Mar-21 22:46 280 5 gusting 11 20.0
2019-Mar-21 22:31 282 6 gusting 10 20.0
2019-Mar-21 22:16 262 4 gusting 9 20.0
2019-Mar-21 22:01 252 6 gusting 10 20.0
2019-Mar-21 21:46 297 4 gusting 11 20.0
2019-Mar-21 21:30 319 6 gusting 11 20.0
2019-Mar-21 21:15 281 7 gusting 12 20.0
2019-Mar-21 21:00 326 5 gusting 13 20.0
2019-Mar-21 20:46 269 6 gusting 13 20.0
2019-Mar-21 20:30 279 6 gusting 13 20.6
2019-Mar-21 20:16 307 5 gusting 11 20.6
2019-Mar-21 20:00 191 5 gusting 13 20.6
2019-Mar-21 19:45 344 6 gusting 13 20.0
2019-Mar-21 19:30 314 4 gusting 15 20.6
2019-Mar-21 19:15 345 7 gusting 13 20.0
2019-Mar-21 19:00 314 6 gusting 14 20.0
2019-Mar-21 18:45 309 5 gusting 13 20.0
2019-Mar-21 18:30 266 8 gusting 13 20.0
2019-Mar-21 18:15 291 5 gusting 12 20.0
2019-Mar-21 18:00 312 6 gusting 13 20.0
2019-Mar-21 17:45 276 5 gusting 10 20.0
2019-Mar-21 17:30 277 4 gusting 11 20.0
2019-Mar-21 17:15 271 6 gusting 10 20.0
2019-Mar-21 17:00 001 3 gusting 8 20.0
2019-Mar-21 16:45 271 4 gusting 9 19.4
2019-Mar-21 16:30 283 5 gusting 11 19.4
2019-Mar-21 16:15 314 4 gusting 10 20.0
2019-Mar-21 16:00 323 4 gusting 8 20.0
2019-Mar-21 15:45 314 3 gusting 12 19.4
2019-Mar-21 15:30 300 3 gusting 6 19.4
2019-Mar-21 15:15 325 3 gusting 10 19.4
2019-Mar-21 15:02 293 3 gusting 7 18.9
2019-Mar-21 14:47 240 1 gusting 7 18.9
2019-Mar-21 14:31 331 4 gusting 9 18.3
2019-Mar-21 14:17 317 4 gusting 7 18.3
2019-Mar-21 14:02 330 5 gusting 9 18.3
2019-Mar-21 13:47 307 4 gusting 6 18.3
2019-Mar-21 13:31 328 4 gusting 8 17.2
2019-Mar-21 13:17 329 2 gusting 6 17.2
2019-Mar-21 13:02 333 3 gusting 6 17.2
2019-Mar-21 12:47 344 2 gusting 7 17.2
2019-Mar-21 12:30 308 3 gusting 6 16.7
2019-Mar-21 12:16
2019-Mar-21 12:01
2019-Mar-21 11:45
2019-Mar-21 11:30
2019-Mar-21 11:15
2019-Mar-21 11:00
2019-Mar-21 10:45
2019-Mar-21 10:30
2019-Mar-21 10:15
2019-Mar-21 10:00
2019-Mar-21 09:47
2019-Mar-21 09:32
2019-Mar-21 09:16
2019-Mar-21 09:01
2019-Mar-21 08:46
2019-Mar-21 08:31
2019-Mar-21 08:16
2019-Mar-21 08:01
2019-Mar-21 07:46
2019-Mar-21 07:30
2019-Mar-21 07:15
2019-Mar-21 07:00 348 1 gusting 3 16.7
2019-Mar-21 06:45 337 1 gusting 5 17.2
2019-Mar-21 06:30 337 1 gusting 3 17.2
2019-Mar-21 06:15 345 1 gusting 4 17.8
2019-Mar-21 06:00 296 1 gusting 4 17.8
2019-Mar-21 05:45 331 1 gusting 3 17.2
2019-Mar-21 05:30 332 0 gusting 3 17.8
2019-Mar-21 05:16 347 0 gusting 3 17.8
2019-Mar-21 05:01 001 1 gusting 6 17.8
2019-Mar-21 04:46 027 1 gusting 4 17.8
2019-Mar-21 04:31 024 2 gusting 6 18.3
2019-Mar-21 04:16 322 3 gusting 6 18.3
2019-Mar-21 04:01 350 4 gusting 6 18.3
2019-Mar-21 03:46 311 1 gusting 6 18.3
2019-Mar-21 03:31 344 2 gusting 6 18.3
2019-Mar-21 03:16 345 2 gusting 6 18.3
2019-Mar-21 03:01 356 2 gusting 6 18.3
2019-Mar-21 02:46 015 3 gusting 7 18.3
2019-Mar-21 02:31 321 3 gusting 8 18.3
2019-Mar-21 02:16 352 4 gusting 6 18.3
2019-Mar-21 02:01 283 4 gusting 7 18.3
2019-Mar-21 01:46 008 4 gusting 6 18.3
2019-Mar-21 01:31 336 5 gusting 7 18.3
2019-Mar-21 01:16 036 5 gusting 8 18.3
2019-Mar-21 01:01 011 5 gusting 7 18.3
2019-Mar-21 00:46 302 3 gusting 9 18.3
2019-Mar-21 00:31 025 6 gusting 9 18.3
2019-Mar-21 00:16 293 4 gusting 9 18.3
2019-Mar-21 00:01 352 6 gusting 13 18.9
2019-Mar-20 23:46 330 5 gusting 13 18.9
2019-Mar-20 23:30 333 7 gusting 11 19.4
2019-Mar-20 23:16 335 5 gusting 11 20.0
2019-Mar-20 23:01 335 6 gusting 13 20.6
2019-Mar-20 22:46 001 6 gusting 13 20.6
2019-Mar-20 22:31 018 6 gusting 14 20.6
2019-Mar-20 22:16 315 6 gusting 12 21.1
2019-Mar-20 22:01 330 5 gusting 13 21.1
2019-Mar-20 21:46 014 5 gusting 9 21.7
2019-Mar-20 21:31 340 6 gusting 12 21.7
2019-Mar-20 21:15 302 7 gusting 14 21.1
2019-Mar-20 21:01 304 7 gusting 13 21.7
2019-Mar-20 20:46 309 6 gusting 13 21.7
2019-Mar-20 20:30 037 4 gusting 8 22.2
2019-Mar-20 20:15 341 3 gusting 6 22.8
2019-Mar-20 20:00 068 3 gusting 9 22.2
2019-Mar-20 19:46 027 3 gusting 8 22.2
2019-Mar-20 19:30 023 4 gusting 9 22.2
2019-Mar-20 19:15 060 2 gusting 9 22.2
2019-Mar-20 19:00 027 5 gusting 8 22.2
2019-Mar-20 18:45 009 5 gusting 10 21.7
2019-Mar-20 18:30 020 2 gusting 7 21.7
2019-Mar-20 18:15 314 6 gusting 8 21.7
2019-Mar-20 18:00 034 2 gusting 7 21.7
2019-Mar-20 17:45 330 5 gusting 7 20.6
2019-Mar-20 17:30 328 4 gusting 10 21.1
2019-Mar-20 17:15 326 4 gusting 8 20.6
2019-Mar-20 17:00 046 5 gusting 10 20.6
2019-Mar-20 16:45 006 5 gusting 8 20.6
2019-Mar-20 16:30 020 4 gusting 10 20.0
2019-Mar-20 16:16 019 3 gusting 11 19.4
2019-Mar-20 16:02 026 5 gusting 9 19.4
2019-Mar-20 15:47 338 4 gusting 8 18.9
2019-Mar-20 15:31 006 3 gusting 10 18.9
2019-Mar-20 15:17 312 5 gusting 13 18.3
2019-Mar-20 15:01 030 4 gusting 10 17.8
2019-Mar-20 14:46 011 3 gusting 10 17.2
2019-Mar-20 14:31 130 3 gusting 16 17.2
2019-Mar-20 14:16 006 3 gusting 12 16.7
2019-Mar-20 14:01 016 5 gusting 13 16.7
2019-Mar-20 13:47 011 6 gusting 12 16.7
2019-Mar-20 13:31 053 6 gusting 11 16.7
2019-Mar-20 13:17 052 5 gusting 13 16.7
2019-Mar-20 13:01 043 6 gusting 12 16.1
2019-Mar-20 12:45 018 6 gusting 13 16.1
2019-Mar-20 12:30
2019-Mar-20 12:15
2019-Mar-20 12:00
2019-Mar-20 11:45
2019-Mar-20 11:30
2019-Mar-20 11:15
2019-Mar-20 11:00
2019-Mar-20 10:47
2019-Mar-20 10:32
2019-Mar-20 10:17
2019-Mar-20 10:01
2019-Mar-20 09:47
2019-Mar-20 09:31
2019-Mar-20 09:16
2019-Mar-20 09:01
2019-Mar-20 08:45
2019-Mar-20 08:31
2019-Mar-20 08:16
2019-Mar-20 08:00
2019-Mar-20 07:45
2019-Mar-20 07:30
2019-Mar-20 07:16
2019-Mar-20 07:01
2019-Mar-20 06:46
2019-Mar-20 06:31
2019-Mar-20 06:16
2019-Mar-20 06:01
2019-Mar-20 05:46
2019-Mar-20 05:30 006 5 gusting 13 16.1
2019-Mar-20 05:15 051 5 gusting 12 15.6
2019-Mar-20 05:00 031 3 gusting 10 15.6